map of VAA home
Great Circle Mapper logo
VAA - Airport
Location
City:  Vaasa, Finland
ICAO / IATA:EFVA / VAA

Details
Type:Airport (Aerodrome, Airfield)
Use:Public/Civil, International (customs port of entry)
Latitude:6303'02"N (63.050650)
Longitude:2145'44"E (21.762175)
Datum:WGS 1984
Elevation:19 ft (6 m)
Variation:8.00E (WMM2015 magnetic declination)
0.17 annual change
Runways:1
Longest:8727 × 157 ft (2660 × 48 m), paved

Time
Time Zone:UTC+2 (DST+3)
Local Time:

Weather
METAR:EFVA 271720Z AUTO 23009KT 200V270 9999 FEW032/// OVC049/// 11/05 Q1005
TAF:EFVA 271729Z 2718/2818 23008KT 9999 BKN040 PROB30
TEMPO 2718/2721 BKN012

Related Locations
Nearby:
Farthest:NZWD: 11166 mi / 17971 km
McMurdo Station [Williams Field], Ross Island, AQ

Find:

   beyond  
but within

Other Information
Maps:
NOTAMs:
Links:
Sources:

  
flag of Finland   

Sectional Chart

Flight Planning
at skyvector.com

Satellite Image

Google Maps Satellite View

 

Copyright © 2004-2015 Karl L. Swartz. All rights reserved.
The Great Circle Mapper name and logo are trademarks of the Great Circle Mapper.
All other trademarks mentioned herein belong to their respective owners.
Please see credits for attibutions and further copyright information.

  Follow gcmap on Facebook Follow gcmap on Twitter Follow gcmap on Google+

hCard Microformat

Geo Microformat